Astoria Rgnl Information

FAA: AST - ICAO: KAST

Astoria Rgnl (Airport) Location

State Oregon
County Clatsop
City Astoria
Astoria Rgnl (Airport) is 3 miles southwest of Astoria, OR.
Latitude 46-09-28.7000N
Longitude 123-52-43.0000W
Elevation 14ft

Astoria Rgnl METARs

METAR KAST 121355Z AUTO 22005KT 10SM OVC021 16/14 A3005 RMK AO2 SLP176 T01560139
Altimeter 30.05"
Temperature 15.6°C (60.1°F)
Wind 220° at 5KT
Clouds overcast at 2,100ft
Visibility 10.0mi
Time observed: 2022-08-12T13:55:00Z

Astoria Rgnl (Airport) Details

Status Operational
Activation July 1938
Ownership Public
Usage Public
Chart SEATTLE
ATC on-site No
Beacon schedule sunset-sunrise
Beacon color clear green

Astoria Rgnl (Airport) Contacts

Owner PORT OF ASTORIA
Owner address 10 PIER 1, SUITE 103, ASTORIA, OR 97103
Owner phone 503-741-3300
Manager DAVID HUBBARD
Manager address 1324 SE 174 RD, WILBURTON, OK 74578
Manager phone 901-581-2228

Astoria Rgnl Radio Frequencies

Astoria Rgnl (Airport) Radio Frequencies

UNICOM 122.8
Common traffic advisory frequency (CTAF) 122.8